QPF
0.02 0.03 0.04 0.04 0.04 0.04 0.04 0.03 0.03 0.03 0.03 0.02 0.02 0.03 0.03 0.03 0.03 0.03 0.02 0.02 0.02 0.02 0.02 0.02 0.01 0.02 0.03 0.03 0.02 0.03 0.04 0.05 0.05 0.04 0.03 0.02 0.01 0.01 0.02 0.01 0.00 0.01 0.01
0.01 0.02 0.02 0.02 0.03 0.03 0.03 0.03 0.04 0.03 0.04 0.04 0.03 0.03 0.03 0.02 0.03 0.03 0.03 0.03 0.03 0.03 0.03 0.02 0.02 0.02 0.03 0.04 0.05 0.05 0.05 0.06 0.06 0.05 0.04 0.03 0.02 0.02 0.02 0.01 0.00 0.01 0.01
0.01 0.01 0.01 0.02 0.02 0.02 0.02 0.03 0.03 0.03 0.03 0.02 0.02 0.02 0.02 0.02 0.02 0.01 0.02 0.02 0.02 0.04 0.04 0.03 0.02 0.02 0.03 0.04 0.06 0.07 0.07 0.05 0.03 0.04 0.04 0.04 0.04 0.03 0.02 0.02 0.01 0.01 0.00
0.01 0.01 0.01 0.01 0.02 0.02 0.02 0.02 0.02 0.02 0.02 0.02 0.02 0.01 0.01 0.01 0.01 0.01 0.02 0.02 0.02 0.03 0.03 0.03 0.03 0.03 0.02 0.03 0.03 0.04 0.05 0.04 0.03 0.03 0.03 0.03 0.04 0.02 0.02 0.02 0.02 0.01 0.00
0.01 0.02 0.02 0.02 0.02 0.02 0.02 0.02 0.01 0.01 0.01 0.01 0.01 0.01 0.00 0.00 0.00 0.01 0.01 0.01 0.02 0.03 0.02 0.02 0.02 0.02 0.02 0.02 0.02 0.03 0.02 0.02 0.02 0.02 0.01 0.01 0.02 0.03 0.04 0.03 0.02 0.01 0.01
0.00 0.01 0.01 0.02 0.02 0.02 0.02 0.02 0.02 0.02 0.02 0.02 0.01 0.01 0.00 0.00 0.00 0.01 0.01 0.01 0.02 0.02 0.03 0.04 0.03 0.02 0.02 0.02 0.02 0.03 0.03 0.02 0.02 0.02 0.01 0.01 0.02 0.02 0.03 0.03 0.02 0.02 0.02
0.00 0.01 0.01 0.02 0.02 0.02 0.02 0.02 0.02 0.02 0.03 0.03 0.02 0.01 0.01 0.01 0.01 0.01 0.02 0.02 0.01 0.01 0.02 0.03 0.03 0.03 0.03 0.02 0.02 0.03 0.03 0.04 0.04 0.04 0.02 0.02 0.03 0.04 0.05 0.04 0.03 0.03 0.02
0.00 0.00 0.01 0.01 0.01 0.02 0.02 0.02 0.02 0.02 0.02 0.02 0.02 0.02 0.01 0.01 0.02 0.02 0.02 0.02 0.01 0.02 0.02 0.02 0.02 0.03 0.03 0.03 0.03 0.03 0.03 0.04 0.05 0.05 0.05 0.05 0.04 0.04 0.04 0.03 0.03 0.02 0.02
0.00 0.00 0.00 0.00 0.00 0.01 0.02 0.01 0.02 0.02 0.01 0.01 0.01 0.01 0.01 0.01 0.01 0.02 0.02 0.03 0.03 0.02 0.03 0.03 0.03 0.03 0.03 0.04 0.03 0.03 0.04 0.04 0.04 0.05 0.05 0.06 0.06 0.05 0.03 0.02 0.01 0.01 0.02
0.00 0.00 0.00 0.00 0.00 0.00 0.01 0.01 0.01 0.02 0.02 0.02 0.02 0.02 0.01 0.01 0.02 0.02 0.02 0.04 0.04 0.03 0.02 0.02 0.02 0.03 0.03 0.03 0.03 0.03 0.03 0.03 0.04 0.04 0.04 0.05 0.05 0.05 0.04 0.03 0.02 0.02 0.02
0.01 0.00 0.00 0.00 0.00 0.00 0.00 0.01 0.01 0.01 0.02 0.02 0.01 0.02 0.02 0.02 0.01 0.01 0.02 0.03 0.03 0.03 0.02 0.02 0.01 0.02 0.02 0.03 0.03 0.03 0.04 0.04 0.04 0.05 0.05 0.05 0.05 0.05 0.05 0.04 0.04 0.04 0.03
0.02 0.01 0.01 0.01 0.00 0.00 0.00 0.00 0.01 0.01 0.01 0.01 0.01 0.01 0.01 0.01 0.01 0.01 0.01 0.01 0.01 0.01 0.01 0.01 0.02 0.02 0.02 0.03 0.02 0.03 0.04 0.04 0.05 0.06 0.06 0.06 0.06 0.05 0.04 0.04 0.04 0.04 0.04
0.01 0.01 0.01 0.01 0.01 0.01 0.00 0.00 0.01 0.01 0.01 0.01 0.01 0.01 0.00 0.01 0.01 0.01 0.01 0.01 0.01 0.01 0.01 0.01 0.02 0.03 0.03 0.03 0.03 0.03 0.03 0.03 0.03 0.04 0.04 0.04 0.05 0.05 0.05 0.05 0.04 0.04 0.04
0.01 0.00 0.00 0.01 0.01 0.01 0.01 0.01 0.01 0.00 0.00 0.01 0.01 0.01 0.00 0.00 0.00 0.00 0.00 0.00 0.01 0.01 0.01 0.01 0.01 0.02 0.02 0.02 0.02 0.03 0.03 0.03 0.03 0.03 0.03 0.04 0.04 0.04 0.04 0.04 0.03 0.03 0.03
0.01 0.01 0.00 0.00 0.00 0.00 0.01 0.01 0.01 0.01 0.01 0.01 0.01 0.01 0.01 0.00 0.00 0.00 0.00 0.00 0.00 0.00 0.01 0.00 0.00 0.01 0.01 0.01 0.02 0.02 0.03 0.03 0.04 0.04 0.04 0.04 0.04 0.04 0.04 0.04 0.03 0.03 0.03
0.01 0.01 0.00 0.00 0.01 0.01 0.01 0.01 0.01 0.01 0.02 0.02 0.02 0.01 0.01 0.01 0.01 0.01 0.01 0.01 0.01 0.01 0.01 0.01 0.01 0.01 0.01 0.02 0.02 0.02 0.02 0.02 0.02 0.03 0.04 0.04 0.04 0.04 0.05 0.04 0.04 0.05 0.04
0.00 0.00 0.00 0.01 0.01 0.01 0.01 0.01 0.01 0.01 0.01 0.02 0.03 0.02 0.02 0.02 0.01 0.01 0.01 0.01 0.01 0.01 0.01 0.01 0.01 0.01 0.02 0.02 0.02 0.02 0.02 0.02 0.02 0.02 0.02 0.03 0.04 0.05 0.05 0.05 0.06 0.07 0.07
0.00 0.00 0.00 0.00 0.00 0.01 0.01 0.02 0.02 0.01 0.01 0.01 0.02 0.02 0.02 0.03 0.02 0.02 0.02 0.02 0.01 0.01 0.01 0.01 0.01 0.02 0.02 0.02 0.02 0.02 0.02 0.02 0.02 0.02 0.03 0.03 0.05 0.06 0.07 0.07 0.07 0.06 0.06
0.00 0.00 0.00 0.00 0.00 0.01 0.01 0.01 0.02 0.02 0.02 0.01 0.02 0.02 0.02 0.02 0.02 0.03 0.03 0.02 0.02 0.01 0.01 0.01 0.01 0.01 0.02 0.02 0.02 0.02 0.02 0.02 0.02 0.02 0.03 0.04 0.05 0.07 0.06 0.06 0.05 0.04 0.04
0.00 0.00 0.01 0.01 0.00 0.00 0.01 0.01 0.01 0.02 0.02 0.01 0.01 0.02 0.02 0.02 0.02 0.02 0.02 0.03 0.03 0.02 0.02 0.02 0.01 0.01 0.02 0.02 0.02 0.02 0.03 0.03 0.03 0.03 0.04 0.04 0.05 0.06 0.05 0.05 0.04 0.04 0.03
0.00 0.00 0.01 0.01 0.01 0.01 0.01 0.01 0.01 0.01 0.02 0.02 0.02 0.02 0.02 0.02 0.02 0.02 0.02 0.01 0.02 0.02 0.03 0.04 0.04 0.03 0.03 0.03 0.03 0.03 0.03 0.03 0.03 0.04 0.04 0.04 0.05 0.06 0.04 0.04 0.05 0.04 0.03
0.01 0.01 0.01 0.01 0.01 0.01 0.01 0.01 0.01 0.01 0.01 0.02 0.02 0.02 0.02 0.02 0.02 0.02 0.02 0.02 0.03 0.03 0.04 0.05 0.04 0.04 0.04 0.05 0.05 0.05 0.05 0.05 0.04 0.04 0.03 0.03 0.04 0.04 0.04 0.03 0.04 0.04 0.03
0.01 0.01 0.01 0.01 0.01 0.01 0.01 0.02 0.02 0.02 0.02 0.02 0.02 0.02 0.01 0.01 0.01 0.01 0.01 0.02 0.03 0.04 0.04 0.04 0.04 0.05 0.06 0.07 0.07 0.06 0.06 0.06 0.06 0.05 0.04 0.03 0.03 0.03 0.03 0.03 0.04 0.04 0.03
0.02 0.01 0.01 0.01 0.01 0.02 0.02 0.02 0.02 0.02 0.01 0.01 0.02 0.01 0.01 0.01 0.01 0.01 0.02 0.02 0.02 0.02 0.03 0.04 0.04 0.04 0.05 0.06 0.06 0.07 0.07 0.06 0.06 0.04 0.04 0.03 0.03 0.03 0.03 0.03 0.03 0.03 0.04
0.02 0.02 0.01 0.01 0.01 0.01 0.02 0.02 0.02 0.01 0.01 0.01 0.01 0.01 0.01 0.01 0.01 0.01 0.02 0.02 0.02 0.02 0.02 0.03 0.03 0.04 0.04 0.04 0.04 0.04 0.04 0.04 0.03 0.03 0.03 0.03 0.03 0.03 0.04 0.04 0.04 0.03 0.03
0.02 0.02 0.01 0.01 0.01 0.01 0.01 0.02 0.02 0.02 0.01 0.01 0.01 0.01 0.01 0.01 0.01 0.01 0.01 0.02 0.02 0.02 0.02 0.02 0.02 0.02 0.02 0.02 0.02 0.02 0.02 0.02 0.02 0.02 0.02 0.02 0.02 0.02 0.03 0.03 0.04 0.04 0.04
MSLP
1016.03 1016.85 1017.66 1018.39 1018.98 1019.43 1019.72 1019.89 1019.98 1020.03 1020.08 1020.14 1020.21 1020.27 1020.31 1020.29 1020.23 1020.10 1019.95 1019.78 1019.63 1019.52 1019.45 1019.41 1019.39 1019.35 1019.25 1019.07 1018.80 1018.45 1018.02 1017.54 1017.04 1016.55 1016.07 1015.61 1015.16 1014.70 1014.22 1013.72 1013.19 1012.65 1012.13
1015.79 1016.58 1017.36 1018.05 1018.63 1019.07 1019.38 1019.59 1019.72 1019.80 1019.87 1019.94 1019.99 1020.01 1020.00 1019.93 1019.81 1019.64 1019.45 1019.26 1019.10 1018.99 1018.93 1018.91 1018.90 1018.86 1018.78 1018.61 1018.36 1018.02 1017.62 1017.17 1016.70 1016.24 1015.78 1015.32 1014.86 1014.38 1013.87 1013.32 1012.75 1012.17 1011.62
1015.72 1016.47 1017.20 1017.85 1018.39 1018.81 1019.11 1019.32 1019.47 1019.57 1019.64 1019.68 1019.69 1019.66 1019.58 1019.45 1019.26 1019.05 1018.82 1018.63 1018.48 1018.39 1018.35 1018.35 1018.36 1018.35 1018.27 1018.11 1017.86 1017.53 1017.14 1016.70 1016.25 1015.80 1015.36 1014.91 1014.45 1013.96 1013.43 1012.86 1012.26 1011.67 1011.10
1015.80 1016.51 1017.17 1017.76 1018.24 1018.62 1018.89 1019.09 1019.23 1019.32 1019.37 1019.38 1019.34 1019.24 1019.08 1018.87 1018.63 1018.37 1018.12 1017.92 1017.79 1017.73 1017.73 1017.76 1017.79 1017.79 1017.72 1017.55 1017.29 1016.95 1016.54 1016.10 1015.64 1015.19 1014.75 1014.31 1013.86 1013.37 1012.85 1012.28 1011.69 1011.09 1010.52
1015.99 1016.65 1017.24 1017.75 1018.17 1018.49 1018.73 1018.90 1019.01 1019.07 1019.08 1019.04 1018.94 1018.78 1018.54 1018.26 1017.96 1017.66 1017.39 1017.20 1017.09 1017.06 1017.09 1017.15 1017.20 1017.20 1017.11 1016.92 1016.62 1016.24 1015.79 1015.32 1014.84 1014.37 1013.93 1013.50 1013.06 1012.60 1012.11 1011.57 1011.00 1010.42 1009.86
1016.25 1016.85 1017.37 1017.80 1018.15 1018.40 1018.59 1018.72 1018.80 1018.83 1018.81 1018.72 1018.56 1018.32 1018.02 1017.68 1017.33 1017.00 1016.72 1016.53 1016.44 1016.43 1016.49 1016.56 1016.61 1016.59 1016.46 1016.22 1015.86 1015.41 1014.90 1014.37 1013.85 1013.37 1012.92 1012.50 1012.08 1011.66 1011.21 1010.72 1010.19 1009.65 1009.12
1016.52 1017.06 1017.51 1017.87 1018.14 1018.34 1018.48 1018.57 1018.62 1018.62 1018.56 1018.43 1018.22 1017.94 1017.58 1017.19 1016.80 1016.45 1016.16 1015.98 1015.89 1015.89 1015.95 1016.01 1016.03 1015.97 1015.78 1015.46 1015.03 1014.50 1013.91 1013.32 1012.76 1012.24 1011.78 1011.37 1010.98 1010.60 1010.19 1009.75 1009.28 1008.78 1008.28
1016.78 1017.26 1017.64 1017.93 1018.14 1018.29 1018.39 1018.45 1018.48 1018.46 1018.38 1018.22 1017.98 1017.65 1017.26 1016.84 1016.42 1016.05 1015.76 1015.56 1015.47 1015.46 1015.50 1015.53 1015.50 1015.37 1015.11 1014.70 1014.18 1013.57 1012.91 1012.26 1011.65 1011.10 1010.64 1010.23 1009.87 1009.51 1009.14 1008.74 1008.30 1007.83 1007.35
1017.00 1017.42 1017.74 1017.97 1018.14 1018.25 1018.33 1018.38 1018.39 1018.36 1018.27 1018.09 1017.83 1017.48 1017.07 1016.63 1016.19 1015.81 1015.50 1015.29 1015.18 1015.14 1015.14 1015.11 1015.02 1014.81 1014.47 1013.99 1013.39 1012.70 1011.99 1011.29 1010.64 1010.08 1009.59 1009.19 1008.83 1008.48 1008.13 1007.74 1007.31 1006.84 1006.36
1017.20 1017.57 1017.84 1018.03 1018.16 1018.25 1018.31 1018.36 1018.37 1018.33 1018.23 1018.05 1017.77 1017.41 1016.99 1016.53 1016.08 1015.68 1015.36 1015.13 1014.99 1014.90 1014.84 1014.76 1014.59 1014.32 1013.90 1013.36 1012.70 1011.97 1011.22 1010.49 1009.83 1009.24 1008.75 1008.32 1007.94 1007.58 1007.19 1006.77 1006.31 1005.82 1005.31
1017.39 1017.71 1017.95 1018.11 1018.22 1018.30 1018.36 1018.40 1018.41 1018.37 1018.26 1018.07 1017.78 1017.41 1016.97 1016.50 1016.05 1015.63 1015.29 1015.03 1014.85 1014.72 1014.60 1014.45 1014.22 1013.89 1013.42 1012.84 1012.15 1011.41 1010.65 1009.91 1009.24 1008.64 1008.12 1007.66 1007.23 1006.80 1006.35 1005.86 1005.33 1004.77 1004.20
1017.60 1017.88 1018.09 1018.24 1018.34 1018.42 1018.48 1018.51 1018.51 1018.46 1018.34 1018.12 1017.82 1017.43 1016.98 1016.50 1016.03 1015.60 1015.24 1014.95 1014.74 1014.56 1014.39 1014.18 1013.90 1013.53 1013.03 1012.43 1011.74 1011.01 1010.26 1009.54 1008.86 1008.25 1007.69 1007.17 1006.66 1006.13 1005.57 1004.96 1004.32 1003.66 1003.01
1017.82 1018.08 1018.28 1018.42 1018.52 1018.60 1018.66 1018.68 1018.67 1018.59 1018.44 1018.20 1017.87 1017.46 1016.99 1016.50 1016.02 1015.58 1015.20 1014.89 1014.64 1014.42 1014.20 1013.95 1013.63 1013.23 1012.72 1012.12 1011.45 1010.73 1010.01 1009.30 1008.63 1007.99 1007.38 1006.78 1006.15 1005.50 1004.80 1004.05 1003.27 1002.49 1001.75
1018.05 1018.31 1018.50 1018.64 1018.75 1018.84 1018.89 1018.90 1018.86 1018.75 1018.56 1018.28 1017.91 1017.48 1016.99 1016.50 1016.01 1015.56 1015.17 1014.84 1014.57 1014.31 1014.06 1013.77 1013.42 1012.99 1012.47 1011.88 1011.22 1010.53 1009.83 1009.13 1008.44 1007.76 1007.08 1006.38 1005.63 1004.83 1003.98 1003.08 1002.16 1001.26 1000.43
1018.29 1018.54 1018.74 1018.90 1019.02 1019.10 1019.14 1019.13 1019.06 1018.91 1018.68 1018.36 1017.96 1017.50 1017.01 1016.51 1016.02 1015.58 1015.19 1014.85 1014.55 1014.27 1013.97 1013.65 1013.26 1012.81 1012.27 1011.67 1011.02 1010.34 1009.63 1008.92 1008.21 1007.47 1006.71 1005.90 1005.02 1004.08 1003.08 1002.03 1000.99 999.99 999.08
1018.48 1018.75 1018.97 1019.14 1019.28 1019.36 1019.40 1019.36 1019.26 1019.07 1018.80 1018.44 1018.02 1017.55 1017.05 1016.56 1016.09 1015.66 1015.28 1014.93 1014.62 1014.31 1013.98 1013.61 1013.18 1012.68 1012.12 1011.49 1010.81 1010.11 1009.38 1008.63 1007.86 1007.06 1006.21 1005.29 1004.30 1003.23 1002.10 1000.94 999.80 998.73 997.78
1018.64 1018.92 1019.16 1019.36 1019.51 1019.60 1019.63 1019.58 1019.45 1019.23 1018.92 1018.55 1018.11 1017.64 1017.16 1016.69 1016.24 1015.84 1015.47 1015.13 1014.80 1014.46 1014.08 1013.66 1013.17 1012.61 1011.98 1011.30 1010.57 1009.81 1009.03 1008.23 1007.40 1006.53 1005.59 1004.57 1003.48 1002.31 1001.10 999.86 998.66 997.54 996.57
1018.75 1019.06 1019.32 1019.54 1019.71 1019.81 1019.83 1019.77 1019.61 1019.38 1019.06 1018.67 1018.24 1017.79 1017.33 1016.89 1016.48 1016.11 1015.75 1015.41 1015.07 1014.69 1014.26 1013.77 1013.20 1012.56 1011.85 1011.09 1010.29 1009.46 1008.61 1007.74 1006.83 1005.88 1004.87 1003.78 1002.62 1001.39 1000.11 998.84 997.61 996.48 995.51
1018.83 1019.16 1019.45 1019.69 1019.87 1019.97 1019.99 1019.92 1019.76 1019.52 1019.20 1018.82 1018.41 1017.98 1017.56 1017.16 1016.79 1016.44 1016.10 1015.76 1015.39 1014.97 1014.48 1013.91 1013.25 1012.52 1011.72 1010.86 1009.97 1009.06 1008.13 1007.18 1006.20 1005.18 1004.11 1002.97 1001.76 1000.50 999.21 997.92 996.69 995.57 994.61
1018.90 1019.25 1019.55 1019.80 1019.99 1020.10 1020.12 1020.05 1019.89 1019.65 1019.34 1018.98 1018.60 1018.21 1017.82 1017.46 1017.12 1016.79 1016.46 1016.10 1015.70 1015.23 1014.67 1014.02 1013.28 1012.45 1011.55 1010.60 1009.62 1008.63 1007.62 1006.60 1005.56 1004.49 1003.37 1002.19 1000.97 999.69 998.40 997.12 995.90 994.79 993.83
1018.98 1019.33 1019.64 1019.90 1020.09 1020.20 1020.23 1020.16 1020.01 1019.78 1019.48 1019.15 1018.80 1018.44 1018.09 1017.76 1017.43 1017.11 1016.77 1016.39 1015.95 1015.42 1014.79 1014.06 1013.23 1012.32 1011.34 1010.31 1009.25 1008.18 1007.11 1006.03 1004.94 1003.83 1002.68 1001.48 1000.24 998.96 997.67 996.40 995.20 994.09 993.13
1019.06 1019.41 1019.72 1019.98 1020.17 1020.28 1020.31 1020.25 1020.11 1019.89 1019.62 1019.31 1018.99 1018.66 1018.33 1018.01 1017.69 1017.36 1017.00 1016.58 1016.08 1015.49 1014.79 1013.99 1013.09 1012.11 1011.06 1009.97 1008.86 1007.74 1006.62 1005.50 1004.37 1003.22 1002.05 1000.83 999.58 998.30 997.01 995.74 994.52 993.41 992.43
1019.13 1019.48 1019.79 1020.04 1020.23 1020.34 1020.37 1020.32 1020.20 1020.00 1019.76 1019.48 1019.17 1018.86 1018.54 1018.22 1017.88 1017.52 1017.12 1016.64 1016.09 1015.43 1014.68 1013.82 1012.86 1011.83 1010.74 1009.62 1008.47 1007.32 1006.17 1005.01 1003.85 1002.68 1001.47 1000.23 998.96 997.66 996.36 995.07 993.84 992.70 991.68
1019.19 1019.53 1019.83 1020.07 1020.26 1020.38 1020.42 1020.39 1020.28 1020.12 1019.90 1019.64 1019.35 1019.05 1018.73 1018.39 1018.02 1017.61 1017.15 1016.62 1016.00 1015.29 1014.47 1013.57 1012.58 1011.52 1010.41 1009.26 1008.10 1006.94 1005.77 1004.59 1003.41 1002.20 1000.96 999.69 998.38 997.05 995.72 994.40 993.14 991.96 990.90
1019.19 1019.53 1019.83 1020.07 1020.27 1020.40 1020.46 1020.45 1020.37 1020.24 1020.05 1019.82 1019.54 1019.24 1018.91 1018.54 1018.13 1017.67 1017.15 1016.55 1015.87 1015.10 1014.24 1013.30 1012.29 1011.22 1010.10 1008.96 1007.80 1006.63 1005.45 1004.25 1003.04 1001.80 1000.52 999.21 997.86 996.49 995.12 993.77 992.47 991.26 990.16
1019.15 1019.49 1019.79 1020.04 1020.25 1020.40 1020.49 1020.51 1020.48 1020.38 1020.22 1020.01 1019.75 1019.45 1019.10 1018.70 1018.24 1017.73 1017.15 1016.49 1015.75 1014.93 1014.04 1013.07 1012.05 1010.98 1009.88 1008.75 1007.60 1006.43 1005.24 1004.03 1002.80 1001.52 1000.20 998.85 997.46 996.05 994.64 993.26 991.94 990.70 989.59
Thickness
5668 5666 5664 5661 5659 5657 5654 5652 5650 5648 5646 5644 5642 5640 5639 5637 5635 5633 5631 5629 5627 5626 5625 5623 5622 5622 5621 5620 5619 5617 5616 5615 5614 5617 5617 5618 5618 5618 5619 5619 5619 5620 5621
5663 5661 5659 5656 5654 5651 5649 5646 5645 5643 5641 5639 5637 5635 5633 5632 5630 5627 5626 5624 5622 5620 5619 5618 5617 5617 5615 5615 5614 5613 5612 5611 5610 5611 5611 5611 5612 5612 5612 5612 5613 5614 5614
5657 5655 5653 5651 5648 5646 5644 5642 5640 5637 5635 5633 5631 5629 5627 5626 5624 5622 5620 5618 5616 5615 5614 5612 5611 5610 5609 5609 5609 5608 5607 5607 5606 5605 5605 5605 5605 5605 5605 5605 5606 5607 5608
5651 5649 5647 5645 5643 5641 5639 5637 5634 5632 5629 5627 5625 5623 5621 5619 5617 5616 5613 5611 5610 5609 5608 5607 5606 5605 5604 5604 5603 5602 5602 5600 5599 5598 5598 5598 5598 5598 5598 5597 5597 5598 5600
5644 5642 5640 5639 5637 5635 5632 5630 5628 5626 5624 5621 5618 5616 5614 5612 5611 5609 5607 5605 5603 5602 5601 5600 5600 5600 5600 5599 5599 5597 5596 5595 5593 5593 5592 5591 5591 5590 5591 5591 5590 5590 5591
5638 5636 5634 5632 5630 5628 5626 5623 5621 5619 5616 5614 5611 5609 5606 5606 5604 5602 5600 5597 5595 5594 5593 5592 5592 5592 5592 5592 5592 5592 5591 5589 5588 5587 5586 5586 5587 5587 5587 5585 5584 5583 5584
5631 5630 5628 5626 5623 5621 5619 5617 5614 5611 5609 5606 5604 5601 5599 5598 5597 5595 5593 5590 5587 5585 5585 5584 5584 5585 5584 5584 5584 5584 5584 5584 5584 5583 5581 5582 5582 5582 5581 5580 5578 5578 5579
5624 5623 5621 5619 5617 5614 5612 5609 5607 5605 5602 5599 5597 5594 5592 5591 5590 5588 5585 5582 5580 5579 5577 5577 5576 5576 5576 5575 5576 5576 5576 5576 5576 5576 5576 5577 5577 5577 5577 5576 5575 5573 5572
5616 5615 5614 5613 5610 5607 5605 5602 5600 5597 5595 5592 5589 5587 5584 5583 5582 5581 5578 5575 5573 5572 5571 5570 5569 5568 5568 5568 5567 5567 5568 5568 5569 5569 5569 5569 5570 5571 5570 5568 5566 5565 5565
5610 5609 5607 5606 5604 5601 5598 5596 5593 5591 5588 5585 5581 5579 5577 5575 5574 5573 5571 5568 5565 5564 5564 5563 5562 5561 5561 5560 5559 5559 5559 5560 5560 5560 5560 5561 5561 5561 5562 5561 5560 5559 5558
5604 5602 5600 5598 5597 5594 5591 5588 5586 5583 5580 5576 5574 5571 5569 5568 5567 5565 5563 5560 5558 5556 5555 5555 5555 5555 5554 5553 5552 5551 5552 5553 5552 5551 5551 5551 5552 5552 5553 5553 5553 5552 5552
5597 5595 5593 5591 5589 5587 5583 5580 5577 5574 5570 5568 5565 5563 5562 5560 5559 5557 5556 5554 5552 5549 5548 5548 5548 5548 5547 5546 5545 5545 5545 5544 5542 5542 5541 5542 5542 5543 5544 5544 5544 5544 5544
5588 5586 5585 5583 5581 5579 5575 5571 5568 5565 5562 5560 5557 5555 5553 5552 5551 5550 5548 5547 5545 5542 5541 5541 5540 5540 5539 5538 5537 5537 5536 5534 5533 5532 5532 5533 5533 5534 5534 5534 5534 5534 5534
5580 5578 5576 5574 5572 5570 5568 5564 5560 5557 5554 5552 5550 5547 5545 5544 5542 5541 5539 5537 5536 5534 5532 5532 5532 5531 5530 5529 5529 5528 5527 5526 5525 5525 5524 5523 5523 5524 5524 5524 5524 5524 5523
5571 5569 5568 5566 5564 5562 5559 5556 5554 5551 5549 5546 5544 5541 5538 5537 5537 5536 5532 5530 5528 5526 5524 5523 5522 5521 5520 5520 5519 5519 5518 5517 5516 5516 5515 5514 5514 5515 5514 5514 5514 5514 5513
5562 5561 5559 5557 5555 5553 5550 5548 5547 5544 5543 5540 5538 5535 5533 5532 5531 5528 5526 5524 5522 5520 5516 5514 5513 5512 5512 5511 5511 5510 5510 5509 5508 5507 5506 5506 5506 5506 5505 5504 5504 5503 5503
5556 5554 5551 5549 5547 5544 5542 5539 5537 5536 5534 5532 5530 5529 5527 5525 5523 5520 5518 5516 5513 5511 5507 5506 5505 5505 5504 5504 5503 5502 5502 5501 5500 5499 5498 5498 5497 5497 5495 5495 5494 5494 5493
5548 5547 5544 5541 5539 5536 5534 5532 5529 5527 5524 5523 5522 5521 5519 5516 5514 5512 5509 5506 5502 5501 5499 5498 5498 5497 5497 5496 5495 5494 5494 5493 5492 5491 5490 5489 5488 5488 5487 5486 5486 5485 5484
5540 5538 5536 5533 5531 5529 5526 5524 5522 5519 5517 5515 5513 5511 5510 5508 5505 5502 5500 5496 5494 5493 5491 5490 5490 5490 5490 5489 5488 5487 5485 5484 5484 5483 5482 5481 5480 5479 5478 5478 5477 5477 5476
5532 5532 5530 5526 5524 5522 5519 5516 5514 5511 5509 5506 5504 5503 5500 5497 5495 5493 5491 5489 5487 5486 5485 5484 5484 5483 5482 5481 5480 5479 5477 5476 5475 5475 5474 5473 5472 5471 5470 5469 5469 5468 5467
5525 5524 5523 5520 5517 5515 5512 5509 5507 5504 5501 5499 5497 5496 5494 5490 5488 5485 5483 5481 5480 5479 5478 5477 5477 5475 5475 5473 5472 5471 5470 5469 5468 5467 5466 5465 5464 5463 5462 5461 5460 5459 5458
5517 5515 5513 5511 5509 5507 5504 5502 5499 5496 5494 5492 5490 5487 5486 5483 5480 5478 5476 5475 5474 5473 5472 5471 5470 5468 5467 5466 5465 5464 5463 5462 5460 5460 5459 5458 5457 5455 5454 5452 5452 5450 5449
5509 5507 5504 5503 5501 5499 5496 5493 5490 5488 5486 5484 5482 5480 5477 5475 5473 5471 5470 5469 5467 5465 5464 5463 5462 5461 5460 5459 5458 5457 5456 5455 5454 5452 5451 5450 5449 5447 5446 5445 5444 5443 5443
5500 5498 5496 5494 5492 5489 5486 5484 5482 5480 5477 5475 5473 5471 5469 5467 5466 5464 5462 5461 5459 5458 5457 5455 5454 5454 5453 5452 5451 5450 5449 5448 5447 5445 5444 5443 5441 5440 5439 5438 5437 5437 5436
5492 5490 5488 5485 5483 5480 5478 5475 5473 5471 5468 5466 5464 5463 5461 5459 5458 5456 5454 5453 5452 5450 5449 5448 5447 5446 5446 5445 5444 5443 5442 5441 5439 5437 5436 5434 5433 5432 5431 5430 5429 5429 5428
5484 5482 5479 5477 5474 5471 5469 5467 5464 5462 5459 5457 5455 5453 5452 5450 5449 5447 5446 5445 5444 5443 5441 5440 5440 5439 5438 5437 5436 5435 5434 5433 5430 5429 5427 5426 5425 5424 5423 5422 5421 5420 5420